owner,sensor,date,latitude,longitude,vertical_datum,sea_water_temperature,qcFlag
Shell,ioos:station:wmo:42906:2,2021-07-01T00:03:00Z,27.0343,-92.0760,9.6,29.2,11111222
Shell,ioos:station:wmo:42906:2,2021-07-01T00:13:00Z,27.0342,-92.0761,9.6,29.2,11111222
Shell,ioos:station:wmo:42906:2,2021-07-01T00:23:00Z,27.0343,-92.0761,9.6,29.2,11111222
Shell,ioos:station:wmo:42906:2,2021-07-01T00:33:00Z,27.0343,-92.0761,9.6,29.2,11111222
Shell,ioos:station:wmo:42906:2,2021-07-01T00:43:00Z,27.0343,-92.0761,9.6,29.1,11111222
Shell,ioos:station:wmo:42906:2,2021-07-01T00:53:00Z,27.0343,-92.0762,9.7,29.1,11111222
Shell,ioos:station:wmo:42906:2,2021-07-01T01:03:00Z,27.0341,-92.0760,9.6,29.1,11111222
Shell,ioos:station:wmo:42906:2,2021-07-01T01:13:00Z,27.0340,-92.0761,9.6,29.0,11111222
Shell,ioos:station:wmo:42906:2,2021-07-01T01:23:00Z,27.0341,-92.0760,9.7,29.0,11111222
Shell,ioos:station:wmo:42906:2,2021-07-01T01:33:00Z,27.0341,-92.0761,9.7,29.1,11111222
Shell,ioos:station:wmo:42906:2,2021-07-01T01:43:00Z,27.0343,-92.0760,9.7,29.1,11111222
Shell,ioos:station:wmo:42906:2,2021-07-01T01:53:00Z,27.0342,-92.0762,9.7,29.1,11111222
Shell,ioos:station:wmo:42906:2,2021-07-01T02:03:00Z,27.0342,-92.0761,9.7,29.1,11111222
Shell,ioos:station:wmo:42906:2,2021-07-01T02:13:00Z,27.0342,-92.0763,9.8,29.1,11111222
Shell,ioos:station:wmo:42906:2,2021-07-01T02:23:00Z,27.0343,-92.0760,9.9,29.1,11111222
Shell,ioos:station:wmo:42906:2,2021-07-01T02:33:00Z,27.0343,-92.0759,9.6,29.1,11111222
Shell,ioos:station:wmo:42906:2,2021-07-01T02:43:00Z,27.0343,-92.0760,9.6,29.1,11111222
Shell,ioos:station:wmo:42906:2,2021-07-01T02:53:00Z,27.0343,-92.0761,9.6,29.1,11111222
Shell,ioos:station:wmo:42906:2,2021-07-01T03:03:00Z,27.0343,-92.0761,9.6,29.1,11111222
Shell,ioos:station:wmo:42906:2,2021-07-01T03:13:00Z,27.0342,-92.0761,9.7,29.1,11111222
Shell,ioos:station:wmo:42906:2,2021-07-01T03:23:00Z,27.0342,-92.0760,9.7,29.0,11111222
Shell,ioos:station:wmo:42906:2,2021-07-01T03:33:00Z,27.0342,-92.0760,9.7,29.0,11111222
Shell,ioos:station:wmo:42906:2,2021-07-01T03:43:00Z,27.0342,-92.0761,9.7,29.0,11111222
Shell,ioos:station:wmo:42906:2,2021-07-01T03:53:00Z,27.0343,-92.0761,9.7,29.0,11111222
Shell,ioos:station:wmo:42906:2,2021-07-01T04:03:00Z,27.0343,-92.0760,9.7,29.0,11111222
Shell,ioos:station:wmo:42906:2,2021-07-01T04:13:00Z,27.0342,-92.0760,9.7,29.0,11111222
Shell,ioos:station:wmo:42906:2,2021-07-01T04:23:00Z,27.0341,-92.0760,9.7,29.0,11111222
Shell,ioos:station:wmo:42906:2,2021-07-01T04:33:00Z,27.0341,-92.0760,9.6,29.0,11111222
Shell,ioos:station:wmo:42906:2,2021-07-01T04:44:00Z,27.0342,-92.0759,9.6,29.0,11111222
Shell,ioos:station:wmo:42906:2,2021-07-01T04:54:00Z,27.0343,-92.0759,9.6,29.0,11111222
Shell,ioos:station:wmo:42906:2,2021-07-01T05:04:00Z,27.0342,-92.0759,9.6,29.0,11111222
Shell,ioos:station:wmo:42906:2,2021-07-01T05:14:00Z,27.0342,-92.0759,9.6,29.0,11111222
Shell,ioos:station:wmo:42906:2,2021-07-01T05:24:00Z,27.0341,-92.0760,9.5,29.0,11111222
Shell,ioos:station:wmo:42906:2,2021-07-01T05:34:00Z,27.0342,-92.0759,9.5,29.0,11111222
Shell,ioos:station:wmo:42906:2,2021-07-01T05:44:00Z,27.0341,-92.0760,9.5,29.0,11111222
Shell,ioos:station:wmo:42906:2,2021-07-01T05:54:00Z,27.0341,-92.0760,9.5,29.0,11111222
Shell,ioos:station:wmo:42906:2,2021-07-01T06:04:00Z,27.0342,-92.0759,9.5,29.0,11111222
Shell,ioos:station:wmo:42906:2,2021-07-01T06:14:00Z,27.0343,-92.0756,9.5,29.0,11111222
Shell,ioos:station:wmo:42906:2,2021-07-01T06:24:00Z,27.0340,-92.0760,9.5,28.9,11111222
Shell,ioos:station:wmo:42906:2,2021-07-01T06:34:00Z,27.0344,-92.0756,9.5,28.9,11111222
Shell,ioos:station:wmo:42906:2,2021-07-01T06:44:00Z,27.0343,-92.0757,9.5,28.9,11111222
Shell,ioos:station:wmo:42906:2,2021-07-01T06:54:00Z,27.0348,-92.0754,9.5,28.9,11111222
Shell,ioos:station:wmo:42906:2,2021-07-01T07:04:00Z,27.0342,-92.0759,9.4,28.9,11111222
Shell,ioos:station:wmo:42906:2,2021-07-01T07:14:00Z,27.0342,-92.0759,9.4,29.0,11111222
Shell,ioos:station:wmo:42906:2,2021-07-01T07:24:00Z,27.0340,-92.0758,9.5,29.0,11111222
Shell,ioos:station:wmo:42906:2,2021-07-01T07:34:00Z,27.0343,-92.0758,9.4,29.0,11111222
Shell,ioos:station:wmo:42906:2,2021-07-01T07:44:00Z,27.0342,-92.0759,9.5,29.0,11111222
Shell,ioos:station:wmo:42906:2,2021-07-01T07:54:00Z,27.0342,-92.0759,9.5,29.0,11111222
Shell,ioos:station:wmo:42906:2,2021-07-01T08:04:00Z,27.0342,-92.0759,9.5,29.0,11111222
Shell,ioos:station:wmo:42906:2,2021-07-01T08:14:00Z,27.0342,-92.0760,9.5,29.0,11111222
Shell,ioos:station:wmo:42906:2,2021-07-01T08:24:00Z,27.0341,-92.0760,9.4,29.0,11111222
Shell,ioos:station:wmo:42906:2,2021-07-01T08:34:00Z,27.0342,-92.0759,9.4,29.0,11111222
Shell,ioos:station:wmo:42906:2,2021-07-01T08:44:00Z,27.0342,-92.0759,9.3,28.9,11111222
Shell,ioos:station:wmo:42906:2,2021-07-01T08:54:00Z,27.0342,-92.0759,9.4,28.9,11111222
Shell,ioos:station:wmo:42906:2,2021-07-01T09:04:00Z,27.0340,-92.0762,9.4,29.1,11111222
Shell,ioos:station:wmo:42906:2,2021-07-01T09:14:00Z,27.0343,-92.0760,9.4,29.1,11111222
Shell,ioos:station:wmo:42906:2,2021-07-01T09:24:00Z,27.0343,-92.0760,9.4,29.1,11111222
Shell,ioos:station:wmo:42906:2,2021-07-01T09:34:00Z,27.0337,-92.0765,9.4,29.1,11111222
Shell,ioos:station:wmo:42906:2,2021-07-01T09:44:00Z,27.0343,-92.0759,9.4,29.0,11111222
Shell,ioos:station:wmo:42906:2,2021-07-01T09:54:00Z,27.0342,-92.0760,9.5,29.0,11111222
Shell,ioos:station:wmo:42906:2,2021-07-01T10:04:00Z,27.0349,-92.0755,9.5,29.0,11111222
Shell,ioos:station:wmo:42906:2,2021-07-01T10:14:00Z,27.0343,-92.0760,9.5,29.0,11111222
Shell,ioos:station:wmo:42906:2,2021-07-01T10:24:00Z,27.0342,-92.0761,9.5,29.0,11111222
Shell,ioos:station:wmo:42906:2,2021-07-01T10:34:00Z,27.0342,-92.0761,9.5,29.0,11111222
Shell,ioos:station:wmo:42906:2,2021-07-01T10:44:00Z,27.0342,-92.0761,9.5,29.0,11111222
Shell,ioos:station:wmo:42906:2,2021-07-01T10:54:00Z,27.0342,-92.0761,9.5,28.9,11111222
Shell,ioos:station:wmo:42906:2,2021-07-01T11:04:00Z,27.0342,-92.0760,9.5,28.8,11111222
Shell,ioos:station:wmo:42906:2,2021-07-01T11:14:00Z,27.0343,-92.0760,9.5,28.8,11111222
Shell,ioos:station:wmo:42906:2,2021-07-01T11:24:00Z,27.0342,-92.0761,9.5,28.7,11111222
Shell,ioos:station:wmo:42906:2,2021-07-01T11:34:00Z,27.0343,-92.0760,9.5,28.7,11111222
Shell,ioos:station:wmo:42906:2,2021-07-01T11:44:00Z,27.0342,-92.0760,9.5,28.7,11111222
Shell,ioos:station:wmo:42906:2,2021-07-01T11:54:00Z,27.0343,-92.0762,9.5,28.7,11111222
Shell,ioos:station:wmo:42906:2,2021-07-01T12:05:00Z,27.0342,-92.0761,9.5,28.7,11111222
Shell,ioos:station:wmo:42906:2,2021-07-01T12:15:00Z,27.0343,-92.0760,9.5,28.7,11111222
Shell,ioos:station:wmo:42906:2,2021-07-01T12:25:00Z,27.0343,-92.0760,9.5,28.8,11111222
Shell,ioos:station:wmo:42906:2,2021-07-01T12:35:00Z,27.0343,-92.0761,9.6,28.8,11111222
Shell,ioos:station:wmo:42906:2,2021-07-01T12:45:00Z,27.0343,-92.0763,9.6,28.8,11111222
Shell,ioos:station:wmo:42906:2,2021-07-01T12:55:00Z,27.0343,-92.0761,9.5,28.8,11111222
Shell,ioos:station:wmo:42906:2,2021-07-01T13:05:00Z,27.0342,-92.0761,9.6,28.9,11111222
Shell,ioos:station:wmo:42906:2,2021-07-01T13:15:00Z,27.0343,-92.0760,9.5,28.9,11111222
Shell,ioos:station:wmo:42906:2,2021-07-01T13:25:00Z,27.0341,-92.0762,9.5,28.9,11111222
Shell,ioos:station:wmo:42906:2,2021-07-01T13:35:00Z,27.0344,-92.0761,9.6,28.8,11111222
Shell,ioos:station:wmo:42906:2,2021-07-01T13:45:00Z,27.0344,-92.0759,9.6,28.8,11111222
Shell,ioos:station:wmo:42906:2,2021-07-01T13:55:00Z,27.0344,-92.0758,9.6,28.8,11111222
Shell,ioos:station:wmo:42906:2,2021-07-01T14:05:00Z,27.0344,-92.0758,9.6,28.8,11111222
Shell,ioos:station:wmo:42906:2,2021-07-01T14:15:00Z,27.0342,-92.0761,9.7,28.8,11111222
Shell,ioos:station:wmo:42906:2,2021-07-01T14:25:00Z,27.0344,-92.0760,9.7,28.8,11111222
Shell,ioos:station:wmo:42906:2,2021-07-01T14:35:00Z,27.0344,-92.0759,9.6,28.8,11111222
Shell,ioos:station:wmo:42906:2,2021-07-01T14:45:00Z,27.0344,-92.0760,9.5,28.8,11111222
Shell,ioos:station:wmo:42906:2,2021-07-01T14:55:00Z,27.0342,-92.0761,9.5,28.8,11111222
Shell,ioos:station:wmo:42906:2,2021-07-01T15:05:00Z,27.0343,-92.0765,9.5,28.8,11111222
Shell,ioos:station:wmo:42906:2,2021-07-01T15:15:00Z,27.0344,-92.0762,9.4,28.8,11111222
Shell,ioos:station:wmo:42906:2,2021-07-01T15:25:00Z,27.0344,-92.0759,9.3,28.8,11111222
Shell,ioos:station:wmo:42906:2,2021-07-01T15:35:00Z,27.0344,-92.0761,9.4,28.8,11111222
Shell,ioos:station:wmo:42906:2,2021-07-01T15:45:00Z,27.0344,-92.0762,9.5,28.8,11111222
Shell,ioos:station:wmo:42906:2,2021-07-01T15:55:00Z,27.0344,-92.0762,9.5,28.9,11111222
Shell,ioos:station:wmo:42906:2,2021-07-01T16:05:00Z,27.0344,-92.0766,9.5,28.9,11111222
Shell,ioos:station:wmo:42906:2,2021-07-01T16:15:00Z,27.0344,-92.0763,9.4,28.9,11111222
Shell,ioos:station:wmo:42906:2,2021-07-01T16:25:00Z,27.0345,-92.0762,9.4,29.0,11111222
Shell,ioos:station:wmo:42906:2,2021-07-01T16:35:00Z,27.0345,-92.0762,9.5,29.0,11111222
Shell,ioos:station:wmo:42906:2,2021-07-01T16:45:00Z,27.0344,-92.0760,9.6,29.0,11111222
Shell,ioos:station:wmo:42906:2,2021-07-01T16:55:00Z,27.0343,-92.0764,9.6,29.0,11111222
Shell,ioos:station:wmo:42906:2,2021-07-01T17:05:00Z,27.0343,-92.0767,9.6,29.0,11111222
Shell,ioos:station:wmo:42906:2,2021-07-01T17:15:00Z,27.0344,-92.0760,9.6,28.9,11111222
Shell,ioos:station:wmo:42906:2,2021-07-01T17:25:00Z,27.0344,-92.0760,9.6,29.0,11111222
Shell,ioos:station:wmo:42906:2,2021-07-01T17:35:00Z,27.0343,-92.0761,9.6,29.0,11111222
Shell,ioos:station:wmo:42906:2,2021-07-01T17:45:00Z,27.0344,-92.0760,9.6,29.1,11111222
Shell,ioos:station:wmo:42906:2,2021-07-01T17:55:00Z,27.0343,-92.0761,9.6,29.1,11111222
Shell,ioos:station:wmo:42906:2,2021-07-01T18:05:00Z,27.0343,-92.0761,9.6,29.2,11111222
Shell,ioos:station:wmo:42906:2,2021-07-01T18:15:00Z,27.0344,-92.0760,9.6,29.2,11111222
Shell,ioos:station:wmo:42906:2,2021-07-01T18:25:00Z,27.0344,-92.0760,9.6,29.2,11111222
Shell,ioos:station:wmo:42906:2,2021-07-01T18:35:00Z,27.0344,-92.0761,9.6,29.0,11111222
Shell,ioos:station:wmo:42906:2,2021-07-01T18:45:00Z,27.0343,-92.0761,9.6,29.0,11111222
Shell,ioos:station:wmo:42906:2,2021-07-01T18:55:00Z,27.0344,-92.0760,9.6,29.0,11111222
Shell,ioos:station:wmo:42906:2,2021-07-01T19:05:00Z,27.0343,-92.0760,9.6,29.0,11111222
Shell,ioos:station:wmo:42906:2,2021-07-01T19:15:00Z,27.0344,-92.0762,9.6,29.0,11111222
Shell,ioos:station:wmo:42906:2,2021-07-01T19:26:00Z,27.0342,-92.0757,9.4,29.0,11111222
Shell,ioos:station:wmo:42906:2,2021-07-01T19:36:00Z,27.0344,-92.0760,9.4,29.0,11111222
Shell,ioos:station:wmo:42906:2,2021-07-01T19:46:00Z,27.0344,-92.0760,9.4,29.0,11111222
Shell,ioos:station:wmo:42906:2,2021-07-01T19:56:00Z,27.0344,-92.0760,9.4,29.0,11111222
Shell,ioos:station:wmo:42906:2,2021-07-01T20:06:00Z,27.0344,-92.0760,9.4,29.0,11111222
Shell,ioos:station:wmo:42906:2,2021-07-01T20:16:00Z,27.0344,-92.0761,9.5,29.1,11111222
Shell,ioos:station:wmo:42906:2,2021-07-01T20:26:00Z,27.0343,-92.0760,9.4,29.1,11111222
Shell,ioos:station:wmo:42906:2,2021-07-01T20:36:00Z,27.0343,-92.0761,9.5,29.2,11111222
Shell,ioos:station:wmo:42906:2,2021-07-01T20:46:00Z,27.0343,-92.0761,9.5,29.2,11111222
Shell,ioos:station:wmo:42906:2,2021-07-01T20:56:00Z,27.0343,-92.0762,9.5,29.2,11111222
Shell,ioos:station:wmo:42906:2,2021-07-01T21:06:00Z,27.0344,-92.0760,9.5,29.3,11111222
Shell,ioos:station:wmo:42906:2,2021-07-01T21:16:00Z,27.0344,-92.0761,9.5,29.2,11111222
Shell,ioos:station:wmo:42906:2,2021-07-01T21:26:00Z,27.0343,-92.0761,9.5,29.2,11111222
Shell,ioos:station:wmo:42906:2,2021-07-01T21:36:00Z,27.0344,-92.0761,9.5,29.2,11111222
Shell,ioos:station:wmo:42906:2,2021-07-01T21:46:00Z,27.0344,-92.0761,9.5,29.2,11111222
Shell,ioos:station:wmo:42906:2,2021-07-01T21:56:00Z,27.0344,-92.0760,9.5,29.2,11111222
Shell,ioos:station:wmo:42906:2,2021-07-01T22:06:00Z,27.0344,-92.0760,9.5,29.2,11111222
Shell,ioos:station:wmo:42906:2,2021-07-01T22:16:00Z,27.0343,-92.0762,9.5,29.2,11111222
Shell,ioos:station:wmo:42906:2,2021-07-01T22:26:00Z,27.0343,-92.0763,9.5,29.2,11111222
Shell,ioos:station:wmo:42906:2,2021-07-01T22:36:00Z,27.0344,-92.0759,9.5,29.2,11111222
Shell,ioos:station:wmo:42906:2,2021-07-01T22:46:00Z,27.0343,-92.0762,9.5,29.2,11111222
Shell,ioos:station:wmo:42906:2,2021-07-01T22:56:00Z,27.0344,-92.0760,9.4,29.2,11111222
Shell,ioos:station:wmo:42906:2,2021-07-01T23:06:00Z,27.0344,-92.0760,9.4,29.2,11111222
Shell,ioos:station:wmo:42906:2,2021-07-01T23:16:00Z,27.0344,-92.0761,9.4,29.2,11111222
Shell,ioos:station:wmo:42906:2,2021-07-01T23:26:00Z,27.0344,-92.0761,9.4,29.2,11111222
Shell,ioos:station:wmo:42906:2,2021-07-01T23:36:00Z,27.0343,-92.0762,9.4,29.2,11111222
Shell,ioos:station:wmo:42906:2,2021-07-01T23:46:00Z,27.0343,-92.0762,9.5,29.2,11111222
Shell,ioos:station:wmo:42906:2,2021-07-01T23:56:00Z,27.0343,-92.0762,9.5,29.2,11111222
Shell,ioos:station:wmo:42906:2,2021-07-02T00:06:00Z,27.0344,-92.0762,9.5,29.2,11111222
Shell,ioos:station:wmo:42906:2,2021-07-02T00:16:00Z,27.0344,-92.0761,9.5,29.2,11111222
Shell,ioos:station:wmo:42906:2,2021-07-02T00:26:00Z,27.0343,-92.0762,9.5,29.2,11111222
Shell,ioos:station:wmo:42906:2,2021-07-02T00:36:00Z,27.0342,-92.0763,9.5,29.2,11111222
Shell,ioos:station:wmo:42906:2,2021-07-02T00:46:00Z,27.0342,-92.0762,9.5,29.2,11111222
Shell,ioos:station:wmo:42906:2,2021-07-02T00:56:00Z,27.0342,-92.0762,9.3,29.2,11111222
Shell,ioos:station:wmo:42906:2,2021-07-02T01:06:00Z,27.0338,-92.0755,9.3,29.2,11111222
Shell,ioos:station:wmo:42906:2,2021-07-02T01:16:00Z,27.0345,-92.0762,9.3,29.2,11111222
Shell,ioos:station:wmo:42906:2,2021-07-02T01:26:00Z,27.0325,-92.0730,9.3,29.2,11111222
Shell,ioos:station:wmo:42906:2,2021-07-02T01:36:00Z,27.0346,-92.0763,9.4,29.2,11111222
Shell,ioos:station:wmo:42906:2,2021-07-02T01:46:00Z,27.0344,-92.0761,9.4,29.2,11111222
Shell,ioos:station:wmo:42906:2,2021-07-02T01:56:00Z,27.0344,-92.0760,9.4,29.2,11111222
Shell,ioos:station:wmo:42906:2,2021-07-02T02:06:00Z,27.0343,-92.0761,9.4,29.2,11111222
Shell,ioos:station:wmo:42906:2,2021-07-02T02:16:00Z,27.0344,-92.0759,9.4,29.2,11111222
Shell,ioos:station:wmo:42906:2,2021-07-02T02:26:00Z,27.0344,-92.0759,9.4,29.2,11111222
Shell,ioos:station:wmo:42906:2,2021-07-02T02:36:00Z,27.0344,-92.0760,9.3,29.2,11111222
Shell,ioos:station:wmo:42906:2,2021-07-02T02:46:00Z,27.0344,-92.0762,9.3,29.2,11111222
Shell,ioos:station:wmo:42906:2,2021-07-02T02:57:00Z,27.0344,-92.0772,9.3,29.2,11111222
Shell,ioos:station:wmo:42906:2,2021-07-02T03:07:00Z,27.0344,-92.0761,9.3,29.2,11111222
Shell,ioos:station:wmo:42906:2,2021-07-02T03:17:00Z,27.0343,-92.0759,9.3,29.2,11111222
Shell,ioos:station:wmo:42906:2,2021-07-02T03:27:00Z,27.0343,-92.0762,9.5,29.2,11111222
Shell,ioos:station:wmo:42906:2,2021-07-02T03:37:00Z,27.0343,-92.0762,9.5,29.2,11111222
Shell,ioos:station:wmo:42906:2,2021-07-02T03:47:00Z,27.0344,-92.0761,9.5,29.2,11111222
Shell,ioos:station:wmo:42906:2,2021-07-02T03:57:00Z,27.0344,-92.0762,9.5,29.2,11111222
Shell,ioos:station:wmo:42906:2,2021-07-02T04:07:00Z,27.0346,-92.0764,9.5,29.2,11111222
Shell,ioos:station:wmo:42906:2,2021-07-02T04:17:00Z,27.0345,-92.0761,9.4,29.1,11111222
Shell,ioos:station:wmo:42906:2,2021-07-02T04:27:00Z,27.0344,-92.0762,9.4,29.1,11111222
Shell,ioos:station:wmo:42906:2,2021-07-02T04:37:00Z,27.0343,-92.0760,9.4,29.1,11111222
Shell,ioos:station:wmo:42906:2,2021-07-02T04:47:00Z,27.0341,-92.0758,9.4,29.1,11111222
Shell,ioos:station:wmo:42906:2,2021-07-02T04:57:00Z,27.0344,-92.0761,9.6,29.1,11111222
Shell,ioos:station:wmo:42906:2,2021-07-02T05:07:00Z,27.0344,-92.0761,9.6,29.1,11111222
Shell,ioos:station:wmo:42906:2,2021-07-02T05:17:00Z,27.0344,-92.0762,9.6,29.1,11111222
Shell,ioos:station:wmo:42906:2,2021-07-02T05:27:00Z,27.0344,-92.0763,9.6,29.2,11111222
Shell,ioos:station:wmo:42906:2,2021-07-02T05:37:00Z,27.0343,-92.0760,9.5,29.2,11111222
Shell,ioos:station:wmo:42906:2,2021-07-02T05:47:00Z,27.0344,-92.0762,9.5,29.1,11111222
Shell,ioos:station:wmo:42906:2,2021-07-02T05:57:00Z,27.0344,-92.0761,9.5,29.1,11111222
Shell,ioos:station:wmo:42906:2,2021-07-02T06:07:00Z,27.0344,-92.0760,9.4,29.1,11111222
Shell,ioos:station:wmo:42906:2,2021-07-02T06:17:00Z,27.0343,-92.0761,9.4,29.1,11111222
Shell,ioos:station:wmo:42906:2,2021-07-02T06:27:00Z,27.0344,-92.0761,9.5,29.1,11111222
Shell,ioos:station:wmo:42906:2,2021-07-02T06:37:00Z,27.0344,-92.0760,9.4,29.1,11111222
Shell,ioos:station:wmo:42906:2,2021-07-02T06:47:00Z,27.0344,-92.0761,9.5,29.1,11111222
Shell,ioos:station:wmo:42906:2,2021-07-02T06:57:00Z,27.0344,-92.0761,9.5,29.1,11111222
Shell,ioos:station:wmo:42906:2,2021-07-02T07:07:00Z,27.0343,-92.0762,9.5,29.1,11111222
Shell,ioos:station:wmo:42906:2,2021-07-02T07:17:00Z,27.0343,-92.0761,9.5,29.1,11111222
Shell,ioos:station:wmo:42906:2,2021-07-02T07:27:00Z,27.0344,-92.0761,9.5,29.0,11111222
Shell,ioos:station:wmo:42906:2,2021-07-02T07:37:00Z,27.0344,-92.0761,9.5,29.0,11111222
Shell,ioos:station:wmo:42906:2,2021-07-02T07:47:00Z,27.0344,-92.0761,9.6,29.1,11111222
Shell,ioos:station:wmo:42906:2,2021-07-02T07:57:00Z,27.0343,-92.0760,9.6,29.1,11111222
Shell,ioos:station:wmo:42906:2,2021-07-02T08:07:00Z,27.0344,-92.0759,9.6,29.2,11111222
Shell,ioos:station:wmo:42906:2,2021-07-02T08:17:00Z,27.0343,-92.0761,9.6,29.2,11111222
Shell,ioos:station:wmo:42906:2,2021-07-02T08:27:00Z,27.0343,-92.0760,9.6,29.2,11111222
Shell,ioos:station:wmo:42906:2,2021-07-02T08:37:00Z,27.0343,-92.0761,9.6,29.2,11111222
Shell,ioos:station:wmo:42906:2,2021-07-02T08:47:00Z,27.0343,-92.0761,9.6,29.2,11111222
Shell,ioos:station:wmo:42906:2,2021-07-02T08:57:00Z,27.0343,-92.0762,9.5,29.2,11111222
Shell,ioos:station:wmo:42906:2,2021-07-02T09:07:00Z,27.0343,-92.0762,9.5,29.2,11111222
Shell,ioos:station:wmo:42906:2,2021-07-02T09:17:00Z,27.0343,-92.0763,9.5,29.2,11111222
Shell,ioos:station:wmo:42906:2,2021-07-02T09:27:00Z,27.0341,-92.0764,9.4,29.2,11111222
Shell,ioos:station:wmo:42906:2,2021-07-02T09:37:00Z,27.0342,-92.0764,9.5,29.1,11111222
Shell,ioos:station:wmo:42906:2,2021-07-02T09:47:00Z,27.0343,-92.0762,9.5,29.1,11111222
Shell,ioos:station:wmo:42906:2,2021-07-02T09:57:00Z,27.0344,-92.0760,9.5,29.1,11111222
Shell,ioos:station:wmo:42906:2,2021-07-02T10:07:00Z,27.0344,-92.0761,9.5,29.1,11111222
Shell,ioos:station:wmo:42906:2,2021-07-02T10:18:00Z,27.0344,-92.0761,9.4,29.0,11111222
Shell,ioos:station:wmo:42906:2,2021-07-02T10:28:00Z,27.0344,-92.0762,9.4,29.0,11111222
Shell,ioos:station:wmo:42906:2,2021-07-02T10:38:00Z,27.0344,-92.0765,9.5,29.0,11111222
Shell,ioos:station:wmo:42906:2,2021-07-02T10:48:00Z,27.0344,-92.0762,9.5,29.0,11111222
Shell,ioos:station:wmo:42906:2,2021-07-02T10:58:00Z,27.0344,-92.0762,9.5,29.0,11111222
Shell,ioos:station:wmo:42906:2,2021-07-02T11:08:00Z,27.0343,-92.0762,9.5,28.9,11111222
Shell,ioos:station:wmo:42906:2,2021-07-02T11:18:00Z,27.0343,-92.0762,9.5,28.9,11111222
Shell,ioos:station:wmo:42906:2,2021-07-02T11:28:00Z,27.0343,-92.0763,9.5,28.9,11111222
Shell,ioos:station:wmo:42906:2,2021-07-02T11:38:00Z,27.0345,-92.0762,9.5,28.9,11111222
Shell,ioos:station:wmo:42906:2,2021-07-02T11:48:00Z,27.0345,-92.0762,9.6,28.9,11111222
Shell,ioos:station:wmo:42906:2,2021-07-02T11:58:00Z,27.0344,-92.0768,9.6,28.9,11111222
Shell,ioos:station:wmo:42906:2,2021-07-02T12:08:00Z,27.0345,-92.0760,9.6,28.9,11111222
Shell,ioos:station:wmo:42906:2,2021-07-02T12:18:00Z,27.0345,-92.0760,9.6,28.9,11111222
Shell,ioos:station:wmo:42906:2,2021-07-02T12:28:00Z,27.0345,-92.0759,9.6,28.9,11111222
Shell,ioos:station:wmo:42906:2,2021-07-02T12:38:00Z,27.0344,-92.0757,9.6,28.9,11111222
Shell,ioos:station:wmo:42906:2,2021-07-02T12:48:00Z,27.0345,-92.0760,9.6,28.9,11111222
Shell,ioos:station:wmo:42906:2,2021-07-02T12:58:00Z,27.0344,-92.0760,9.6,28.9,11111222
Shell,ioos:station:wmo:42906:2,2021-07-02T13:08:00Z,27.0344,-92.0759,9.6,28.9,11111222
Shell,ioos:station:wmo:42906:2,2021-07-02T13:18:00Z,27.0344,-92.0759,9.5,28.9,11111222
Shell,ioos:station:wmo:42906:2,2021-07-02T13:28:00Z,27.0345,-92.0762,9.5,28.8,11111222
Shell,ioos:station:wmo:42906:2,2021-07-02T13:38:00Z,27.0345,-92.0760,9.5,28.8,11111222
Shell,ioos:station:wmo:42906:2,2021-07-02T13:48:00Z,27.0345,-92.0761,9.5,28.8,11111222
Shell,ioos:station:wmo:42906:2,2021-07-02T13:58:00Z,27.0345,-92.0761,9.5,28.8,11111222
Shell,ioos:station:wmo:42906:2,2021-07-02T14:08:00Z,27.0346,-92.0761,9.4,28.9,11111222
Shell,ioos:station:wmo:42906:2,2021-07-02T14:18:00Z,27.0343,-92.0760,9.6,28.9,11111222
Shell,ioos:station:wmo:42906:2,2021-07-02T14:28:00Z,27.0353,-92.0762,9.5,28.9,11111222
Shell,ioos:station:wmo:42906:2,2021-07-02T14:38:00Z,27.0344,-92.0761,9.5,28.9,11111222
Shell,ioos:station:wmo:42906:2,2021-07-02T14:48:00Z,27.0345,-92.0761,9.5,28.9,11111222
Shell,ioos:station:wmo:42906:2,2021-07-02T14:58:00Z,27.0345,-92.0760,9.4,28.9,11111222
Shell,ioos:station:wmo:42906:2,2021-07-02T15:08:00Z,27.0344,-92.0758,9.4,28.9,11111222
Shell,ioos:station:wmo:42906:2,2021-07-02T15:18:00Z,27.0344,-92.0761,9.5,28.9,11111222
Shell,ioos:station:wmo:42906:2,2021-07-02T15:28:00Z,27.0346,-92.0769,9.5,28.9,11111222
Shell,ioos:station:wmo:42906:2,2021-07-02T15:38:00Z,27.0345,-92.0761,9.5,28.9,11111222
Shell,ioos:station:wmo:42906:2,2021-07-02T15:48:00Z,27.0345,-92.0763,9.6,29.0,11111222
Shell,ioos:station:wmo:42906:2,2021-07-02T15:58:00Z,27.0345,-92.0760,9.7,29.0,11111222
Shell,ioos:station:wmo:42906:2,2021-07-02T16:08:00Z,27.0345,-92.0761,9.7,29.0,11111222
Shell,ioos:station:wmo:42906:2,2021-07-02T16:18:00Z,27.0345,-92.0761,9.6,29.0,11111222
Shell,ioos:station:wmo:42906:2,2021-07-02T16:28:00Z,27.0347,-92.0765,9.6,29.0,11111222
Shell,ioos:station:wmo:42906:2,2021-07-02T16:38:00Z,27.0349,-92.0766,9.7,29.0,11111222
Shell,ioos:station:wmo:42906:2,2021-07-02T16:48:00Z,27.0346,-92.0762,9.6,29.1,11111222
Shell,ioos:station:wmo:42906:2,2021-07-02T16:58:00Z,27.0347,-92.0765,9.6,29.1,11111222
Shell,ioos:station:wmo:42906:2,2021-07-02T17:08:00Z,27.0345,-92.0761,9.6,29.1,11111222
Shell,ioos:station:wmo:42906:2,2021-07-02T17:18:00Z,27.0345,-92.0761,9.6,29.2,11111222
Shell,ioos:station:wmo:42906:2,2021-07-02T17:28:00Z,27.0343,-92.0760,9.6,29.2,11111222
Shell,ioos:station:wmo:42906:2,2021-07-02T17:39:00Z,27.0343,-92.0759,9.6,29.2,11111222
Shell,ioos:station:wmo:42906:2,2021-07-02T17:49:00Z,27.0346,-92.0762,9.6,29.2,11111222
Shell,ioos:station:wmo:42906:2,2021-07-02T17:59:00Z,27.0345,-92.0762,9.6,29.2,11111222
Shell,ioos:station:wmo:42906:2,2021-07-02T18:09:00Z,27.0345,-92.0761,9.6,29.3,11111222
Shell,ioos:station:wmo:42906:2,2021-07-02T18:19:00Z,27.0345,-92.0761,9.7,29.3,11111222
Shell,ioos:station:wmo:42906:2,2021-07-02T18:29:00Z,27.0345,-92.0760,9.6,29.3,11111222
Shell,ioos:station:wmo:42906:2,2021-07-02T18:39:00Z,27.0345,-92.0761,9.6,29.3,11111222
Shell,ioos:station:wmo:42906:2,2021-07-02T18:49:00Z,27.0345,-92.0760,9.6,29.4,11111222
Shell,ioos:station:wmo:42906:2,2021-07-02T18:59:00Z,27.0344,-92.0761,9.5,29.4,11111222
Shell,ioos:station:wmo:42906:2,2021-07-02T19:09:00Z,27.0345,-92.0760,9.5,29.4,11111222
Shell,ioos:station:wmo:42906:2,2021-07-02T19:19:00Z,27.0345,-92.0760,9.5,29.4,11111222
Shell,ioos:station:wmo:42906:2,2021-07-02T19:29:00Z,27.0345,-92.0763,9.5,29.5,11111222
Shell,ioos:station:wmo:42906:2,2021-07-02T19:39:00Z,27.0345,-92.0760,9.5,29.5,11111222
Shell,ioos:station:wmo:42906:2,2021-07-02T19:49:00Z,27.0346,-92.0761,9.6,29.5,11111222
Shell,ioos:station:wmo:42906:2,2021-07-02T19:59:00Z,27.0345,-92.0765,9.6,29.4,11111222
Shell,ioos:station:wmo:42906:2,2021-07-02T20:09:00Z,27.0345,-92.0760,9.5,29.4,11111222
Shell,ioos:station:wmo:42906:2,2021-07-02T20:19:00Z,27.0342,-92.0758,9.5,29.3,11111222
Shell,ioos:station:wmo:42906:2,2021-07-02T20:29:00Z,27.0347,-92.0763,9.5,29.3,11111222
Shell,ioos:station:wmo:42906:2,2021-07-02T20:39:00Z,27.0345,-92.0762,9.6,29.4,11111222
Shell,ioos:station:wmo:42906:2,2021-07-02T20:49:00Z,27.0344,-92.0761,9.6,29.6,11111222
Shell,ioos:station:wmo:42906:2,2021-07-02T20:59:00Z,27.0344,-92.0756,9.6,29.6,11111222
Shell,ioos:station:wmo:42906:2,2021-07-02T21:09:00Z,27.0345,-92.0760,9.6,29.6,11111222